[[{"header":{"parameterUnit":"m.s-1","parameterCategory":1,"la1":30.2992,"la2":30.254,"lo1":-89.0895,"lo2":-89.0443,"dy":0.0025,"dx":0.0025,"nx":19,"ny":19,"refTime":"2026-05-07T09:00:00:Z","depth":0,"parameterNumber":2,"parameterNumberName":"U-component_of_WINDS"},"data":[0,0,0,4.8479,4.8481,4.8566,4.8566,4.8689,4.869,0,0,0,0,0,0,0,0,0,0,0,4.8464,4.8465,4.8479,4.8482,4.8566,4.8566,4.8688,4.869,0,0,0,0,0,0,0,0,0,0,0,4.8464,4.8465,4.8466,4.8482,4.8566,4.8566,4.8688,4.8619,0,0,0,0,0,0,0,0,0,0,4.8534,4.853,4.8465,4.8466,4.8482,4.8566,4.8566,4.8615,4.8623,4.8657,0,4.869,0,4.8692,4.8699,4.8699,0,0,0,4.8474,4.8524,4.8538,4.8467,4.8483,4.8566,4.8526,4.8619,4.8628,4.8667,4.8692,4.8696,4.8694,4.87,4.8701,4.8921,4.8922,0,0,4.8469,4.8484,4.8532,4.8544,4.8533,4.8523,4.8529,4.8625,4.8652,4.8692,4.8698,4.8696,4.8701,4.8702,4.892,4.8922,0,0,0,4.8461,4.8481,4.8493,4.8539,4.8554,4.8526,4.8532,4.8648,4.865,4.87,4.8698,4.8702,4.8703,4.8918,4.892,4.9004,0,0,0,4.8458,4.8477,4.8491,4.8501,4.8552,4.8602,4.8553,4.8644,4.8654,4.8697,4.8702,4.8705,4.8917,4.8919,4.8998,4.904,0,0,0,4.8455,4.8476,4.8492,4.8502,4.8539,4.86,4.8608,4.8645,4.8653,4.87,4.8705,4.8916,4.8919,4.8993,4.9032,4.9101,0,0,0,4.8456,4.8565,4.8494,4.8614,4.8538,4.8652,4.8607,4.8691,4.874,4.8702,4.8917,4.892,4.8991,4.9027,4.9096,4.9162,4.9191,0,0,4.8601,4.8583,4.8652,4.8591,4.8721,4.8638,4.8779,4.881,4.88,4.8881,4.8886,4.9,4.9031,4.91,4.9353,4.9376,0,0,0,4.8703,4.8753,4.8784,4.8833,4.886,4.8885,4.8893,4.8904,4.8972,4.8845,4.9044,4.9062,4.9102,4.9133,4.9153,4.9185,4.8936,4.8935,4.8935,4.8929,4.8912,4.9025,4.9017,4.9065,4.9071,4.9108,4.9124,4.9092,4.9139,4.9162,4.9318,4.9354,4.9369,4.9403,4.9197,4.9197,4.9197,4.9198,4.9139,4.9206,4.9161,4.9255,4.9235,4.9312,4.9323,4.9297,4.9366,4.9299,4.9333,4.926,4.9395,4.9424,4.9204,4.9203,4.9202,4.9201,4.9201,4.9284,4.9313,4.9326,4.9394,4.9448,4.9436,4.9503,4.9483,4.9464,4.9498,4.9519,4.9518,4.9512,4.951,4.951,4.9511,4.9511,4.9512,4.9512,4.9429,4.9441,4.9501,4.9538,4.9566,4.96,4.9608,4.9635,4.9658,4.9638,4.9638,4.96,4.9413,4.9365,4.952,4.9519,4.9518,4.9517,4.9516,4.9646,4.9593,4.9687,4.9715,4.9756,4.981,4.9784,4.9839,4.9858,4.9892,4.9847,4.9713,4.9691,4.9675,4.9636,4.9851,4.9851,4.9851,4.9852,4.9767,4.9755,4.9845,4.9891,4.9934,4.9919,5.0022,5.0029,5.0028,5.0038,5.0004,4.995,4.9935,4.9922,4.9901,4.9864,5.0133,5.0133,5.0133,4.9898,4.9889,4.9982,4.9981,5.0012,5.0038,5.0135,5.0188,5.0175,5.0144,5.0045,5.0033,4.9946,4.9919,4.9884,4.9851,4.9782,0,0]},{"header":{"parameterUnit":"m.s-1","parameterCategory":1,"la1":30.2992,"la2":30.254,"lo1":-89.0895,"lo2":-89.0443,"dy":0.0025,"dx":0.0025,"nx":19,"ny":19,"refTime":"2026-05-07T09:00:00:Z","depth":0,"parameterNumber":3,"parameterNumberName":"V-component_of_WINDS"},"data":[0,0,0,4.1287,4.1291,4.1518,4.1519,4.1803,4.1806,0,0,0,0,0,0,0,0,0,0,0,4.1216,4.1218,4.1286,4.1292,4.1518,4.1519,4.1803,4.1806,0,0,0,0,0,0,0,0,0,0,0,4.1215,4.1217,4.1219,4.1293,4.1518,4.1519,4.1802,4.1633,0,0,0,0,0,0,0,0,0,0,4.1414,4.1345,4.1217,4.1219,4.1294,4.1518,4.1519,4.1625,4.1644,4.1698,0,4.1745,0,4.178,4.1824,4.1825,0,0,0,4.1295,4.133,4.1394,4.122,4.1296,4.1517,4.1417,4.1636,4.1657,4.1722,4.1749,4.176,4.1784,4.1826,4.1827,4.213,4.2131,0,0,4.1282,4.1255,4.1379,4.1407,4.1372,4.1409,4.1424,4.1648,4.1676,4.175,4.1767,4.1789,4.1828,4.183,4.2129,4.2131,0,0,0,4.1244,4.1246,4.1305,4.1396,4.1437,4.1416,4.1432,4.1666,4.1687,4.177,4.1792,4.183,4.1833,4.2128,4.213,4.2168,0,0,0,4.1237,4.1224,4.1299,4.1285,4.1432,4.1554,4.1444,4.1672,4.1698,4.1791,4.183,4.1836,4.2126,4.2129,4.2164,4.2191,0,0,0,4.1202,4.122,4.1251,4.1283,4.1379,4.1551,4.1586,4.1678,4.1712,4.1825,4.1836,4.2125,4.2128,4.216,4.2185,4.2264,0,0,0,4.1157,4.1281,4.1251,4.1398,4.1377,4.1572,4.1584,4.1731,4.1833,4.1831,4.2127,4.2129,4.2159,4.2181,4.226,4.2327,4.2351,0,0,4.1298,4.1297,4.1386,4.1366,4.1559,4.154,4.1739,4.1858,4.1894,4.2049,4.2057,4.2165,4.2185,4.2263,4.2496,4.2515,0,0,0,4.1421,4.1485,4.1542,4.1638,4.1731,4.1814,4.1906,4.195,4.2083,4.1968,4.2214,4.2227,4.2274,4.2308,4.2324,4.2367,4.2143,4.2143,4.2142,4.1583,4.1622,4.1771,4.1837,4.193,4.2023,4.2102,4.2177,4.2189,4.2246,4.2293,4.243,4.2468,4.248,4.2525,4.233,4.233,4.233,4.233,4.1795,4.1892,4.1904,4.2054,4.2094,4.222,4.2314,4.2318,4.2442,4.2397,4.2441,4.2391,4.2501,4.2542,4.2334,4.2333,4.2333,4.2332,4.2332,4.1907,4.196,4.2011,4.2154,4.2259,4.2321,4.2439,4.2471,4.2502,4.2545,4.2599,4.2599,4.2604,4.2568,4.2568,4.2569,4.2569,4.257,4.257,4.2004,4.206,4.2156,4.2265,4.2331,4.2422,4.2515,4.2581,4.2662,4.2676,4.2677,4.2684,4.2503,4.2458,4.2578,4.2576,4.2575,4.2574,4.2574,4.2208,4.2167,4.2315,4.2381,4.2512,4.2616,4.2654,4.2785,4.2844,4.2901,4.2899,4.2759,4.276,4.2747,4.2711,4.2888,4.2888,4.2888,4.2888,4.2304,4.2307,4.2467,4.257,4.2675,4.2724,4.2892,4.2965,4.3035,4.3074,4.3052,4.3005,4.299,4.3001,4.2983,4.2949,4.3183,4.3184,4.3184,4.2433,4.2448,4.2584,4.2652,4.2756,4.2846,4.3005,4.3123,4.3193,4.3197,4.3106,4.3093,4.3018,4.2991,4.2995,4.2965,4.2904,0,0]}]]